Location: Kapuskasing
(49.3803°N, 82.4001°W)
Time: 10:18:28
(UTC-04:00)

RS-44 - Pass Details

Date: 20 March 2026
Orbit: 1175 x 1510 km, 82.5° (Epoch: 11 April)

Event Time Altitude Azimuth Distance (km) Brightness Sun altitude
Rises 01:04:38 0° 353° (N) 4,413 ? -40.3°
Reaches altitude 10° 01:08:39 10° 11° (N) 3,497 ? -40.4°
Maximum altitude 01:14:08 18° 52° (NE) 2,960 ? -40.5°
Enters shadow 01:17:39 15° 80° (E) 3,249 ? -40.6°
